OK1FET-6 Weather Reports


Display with metric or nautical units.
time (UTC)temp
F
wind
direction
speed
MPH
gust
MPH
rain 1hr
in
rain 24hr
in
rain mn
in
humidity
%
barometer
mb
20260905215309 59 273 4.0 10.0 0.00 0.15 0.00 47 1023.2
20260905214311 59 290 3.0 11.0 0.00 0.15 0.00 47 1023.3
20260905213313 60 299 4.0 8.0 0.00 0.15 0.00 47 1023.2
20260905212315 60 290 3.0 7.0 0.00 0.15 0.00 46 1023.1
20260905211316 61 298 4.0 11.0 0.00 0.15 0.00 46 1023.0
20260905210318 61 288 4.0 9.0 0.00 0.15 0.00 46 1022.9
20260905205320 61 237 2.0 10.0 0.00 0.15 0.00 46 1022.7
20260905204322 61 260 2.0 7.0 0.00 0.15 0.00 46 1022.7
20260905203324 61 261 3.0 7.0 0.00 0.15 0.00 45 1022.5
20260905202325 62 250 2.0 10.0 0.00 0.15 0.00 45 1022.4
20260905201327 62 249 5.0 12.0 0.00 0.15 0.00 45 1022.3
20260905195331 62 261 3.0 8.0 0.00 0.15 0.00 44 1022.0
20260905194333 63 264 2.0 7.0 0.00 0.15 0.00 44 1021.9
20260905193333 63 307 6.0 13.0 0.00 0.15 0.00 44 1021.8
20260905192333 63 300 3.0 10.0 0.00 0.15 0.00 43 1021.6
20260905190336 64 298 4.0 11.0 0.00 0.15 0.00 43 1021.5
20260905184340 64 319 5.0 17.0 0.00 0.15 0.00 42 1021.2
20260905182344 65 309 6.0 14.0 0.00 0.15 0.00 41 1021.1
20260905181345 66 293 7.0 14.0 0.00 0.15 0.00 40 1020.9
20260905180347 66 311 7.0 11.0 0.00 0.15 0.00 39 1020.8
20260905175349 66 302 5.0 13.0 0.00 0.15 0.00 39 1020.5
20260905174351 67 306 6.0 13.0 0.00 0.15 0.00 38 1020.4
20260905173353 68 297 5.0 14.0 0.00 0.15 0.00 38 1020.2
20260905172355 69 283 5.0 11.0 0.00 0.15 0.00 37 1020.1
20260905170357 70 329 5.0 13.0 0.00 0.15 0.00 36 1019.7
20260905165359 71 316 6.0 14.0 0.00 0.15 0.00 35 1019.7
20260905164401 72 2 6.0 16.0 0.00 0.15 0.00 35 1019.5
20260905163404 73 323 6.0 17.0 0.00 0.15 0.00 34 1019.4
20260905162402 75 323 6.0 12.0 0.00 0.15 0.00 34 1019.3
20260905161404 76 312 7.0 16.0 0.00 0.15 0.00 33 1019.1
20260905160406 77 306 7.0 17.0 0.00 0.15 0.00 32 1019.1
20260905155408 79 320 7.0 26.0 0.00 0.15 0.00 31 1018.9
20260905154410 82 315 8.0 16.0 0.00 0.15 0.00 30 1018.9
20260905153412 86 322 5.0 13.0 0.00 0.15 0.00 28 1018.9
20260905152413 91 333 4.0 11.0 0.00 0.15 0.00 26 1018.9
20260905151413 94 356 6.0 18.0 0.00 0.15 0.00 25 1018.9
20260905150412 95 326 7.0 16.0 0.00 0.15 0.00 25 1018.9
20260905145414 95 307 8.0 16.0 0.00 0.15 0.00 25 1018.8
20260905144416 96 287 6.0 11.0 0.00 0.15 0.00 24 1018.9
20260905143416 95 337 6.0 16.0 0.00 0.15 0.00 25 1018.9
20260905142418 94 283 10.0 21.0 0.00 0.15 0.00 25 1018.9
20260905141420 97 305 9.0 18.0 0.00 0.15 0.00 24 1018.8
20260905140422 97 321 12.0 21.0 0.00 0.15 0.00 24 1018.9
20260905135423 102 299 9.0 26.0 0.00 0.15 0.00 24 1019.0
20260905134425 104 318 9.0 20.0 0.00 0.15 0.00 24 1019.1
20260905133427 103 288 6.0 17.0 0.00 0.15 0.00 24 1019.1
20260905132429 104 283 10.0 24.0 0.00 0.15 0.00 24 1019.1
20260905131429 104 304 9.0 20.0 0.00 0.15 0.00 24 1019.1
20260905130429 102 289 9.0 17.0 0.00 0.15 0.00 25 1019.2
20260905125431 98 313 10.0 21.0 0.00 0.15 0.00 27 1019.3
20260905124432 92 310 10.0 19.0 0.00 0.15 0.00 29 1019.2
20260905123434 86 303 8.0 18.0 0.00 0.15 0.00 33 1019.3
20260905122436 86 335 8.0 21.0 0.00 0.15 0.00 34 1019.4
20260905121438 90 296 11.0 30.0 0.00 0.15 0.00 32 1019.4
20260905115441 91 303 11.0 22.0 0.00 0.15 0.00 34 1019.6
20260905114443 91 296 10.0 18.0 0.00 0.15 0.00 37 1019.5
20260905113445 93 313 9.0 18.0 0.00 0.15 0.00 39 1019.6
20260905112447 96 321 6.0 18.0 0.00 0.15 0.00 41 1019.7
20260905111449 98 320 8.0 16.0 0.00 0.15 0.00 41 1019.8
20260905110451 101 286 8.0 16.0 0.00 0.15 0.00 44 1019.8
20260905105452 99 297 8.0 18.0 0.00 0.15 0.00 51 1019.7
20260905104454 93 304 8.0 14.0 0.00 0.15 0.00 61 1019.7
20260905103455 90 306 7.0 12.0 0.00 0.15 0.00 66 1019.9
20260905102457 87 287 6.0 18.0 0.00 0.15 0.00 69 1019.7
20260905101459 85 294 7.0 17.0 0.00 0.15 0.00 67 1019.7
20260905100501 83 267 7.0 15.0 0.00 0.15 0.00 65 1019.8
20260905095502 89 265 9.0 16.0 0.00 0.15 0.00 61 1019.8
20260905094504 89 274 9.0 23.0 0.00 0.15 0.00 65 1019.7
20260905093506 83 302 6.0 12.0 0.00 0.15 0.00 69 1019.7
20260905092508 84 282 7.0 14.0 0.00 0.15 0.00 64 1019.8
20260905091510 86 282 7.0 16.0 0.00 0.15 0.00 65 1020.0
20260905090510 86 272 5.0 11.0 0.00 0.15 0.00 68 1019.9
20260905084513 87 303 6.0 13.0 0.00 0.15 0.00 63 1019.7
20260905083513 88 299 6.0 12.0 0.00 0.15 0.00 63 1019.9
20260905082516 86 274 5.0 10.0 0.00 0.15 0.00 66 1019.8
20260905081517 83 279 6.0 13.0 0.00 0.15 0.00 68 1019.7
20260905080519 80 264 6.0 18.0 0.00 0.15 0.00 70 1019.6
20260905075521 77 282 5.0 14.0 0.00 0.15 0.00 72 1019.4
20260905074522 74 278 10.0 17.0 0.00 0.15 0.00 74 1019.3
20260905073524 71 271 11.0 24.0 0.00 0.15 0.00 76 1019.2
20260905072526 69 288 5.0 14.0 0.00 0.15 0.00 79 1019.0
20260905071527 65 251 9.0 22.0 0.00 0.15 0.00 80 1018.9
20260905070529 62 262 10.0 18.0 0.00 0.15 0.00 82 1018.9
20260905065531 59 263 11.0 29.0 0.00 0.15 0.00 82 1018.9
20260905064533 59 273 13.0 26.0 0.00 0.15 0.00 83 1018.9
20260905063535 58 265 9.0 25.0 0.00 0.15 0.00 83 1018.9
20260905061538 58 277 5.0 10.0 0.00 0.15 0.00 82 1018.8
20260905060540 57 263 6.0 16.0 0.00 0.15 0.00 81 1018.6
20260905055542 57 254 5.0 11.0 0.00 0.15 0.00 81 1018.5
20260905054543 57 267 5.0 10.0 0.00 0.15 0.00 80 1018.3
20260905053543 57 272 5.0 10.0 0.00 0.15 0.00 80 1018.1
20260905052542 57 259 4.0 11.0 0.02 0.15 0.00 79 1018.0
20260905051544 57 278 4.0 12.0 0.02 0.15 0.00 79 1018.0
20260905050545 58 261 4.0 11.0 0.02 0.15 0.00 78 1017.7
20260905045546 58 226 2.0 8.0 0.04 0.15 0.00 77 1017.6
20260905044548 58 244 2.0 11.0 0.06 0.15 0.00 77 1017.4
20260905043550 58 177 0.0 2.0 0.06 0.15 0.00 76 1017.3
20260905042554 58 290 1.0 5.0 0.09 0.13 0.00 75 1017.3
20260905041555 58 0 2.0 8.0 0.11 0.13 0.00 75 1017.0
20260905040556 58 68 1.0 6.0 0.11 0.13 0.00 74 1016.6
20260905035612 58 234 2.0 8.0 0.11 0.11 0.00 72 1016.6
20260905034630 58 249 3.0 8.0 0.09 0.09 0.00 71 1016.7
20260905033632 58 268 4.0 11.0 0.09 0.09 0.00 69 1017.0
20260905032701 59 258 4.0 9.0 0.04 0.04 0.00 66 1017.1
20260905031714 59 269 4.0 10.0 0.02 0.02 0.00 64 1017.1
20260905030716 60 286 6.0 16.0 0.02 0.02 0.00 64 1017.0
20260905025721 60 271 11.0 21.0 0.00 0.00 0.00 63 1017.0
20260905024723 60 277 7.0 18.0 0.00 0.00 0.00 62 1016.7
20260905023724 60 294 7.0 15.0 0.00 0.00 0.00 62 1016.3
20260905022726 60 280 6.0 16.0 0.00 0.00 0.00 61 1016.2
20260905021729 60 271 5.0 14.0 0.00 0.00 0.00 61 1016.1
20260905020730 61 283 5.0 12.0 0.00 0.00 0.00 60 1015.8
20260905015731 61 272 7.0 18.0 0.00 0.00 0.00 60 1016.2
20260905014733 62 264 7.0 17.0 0.00 0.00 0.00 58 1016.0
20260905013734 64 305 8.0 21.0 0.00 0.00 0.00 57 1015.8
20260905012736 64 284 4.0 10.0 0.00 0.00 0.00 56 1015.5
20260905011738 65 299 8.0 20.0 0.00 0.00 0.00 55 1015.3
20260905010740 66 314 7.0 22.0 0.00 0.00 0.00 55 1015.5
20260905005742 66 288 4.0 9.0 0.00 0.00 0.00 55 1015.3
20260905004744 66 282 6.0 14.0 0.00 0.00 0.00 55 1015.5
20260905004002 66 302 7.0 12.0 0.00 0.00 0.00 55 1015.1
20260905003746 66 302 7.0 12.0 0.00 0.00 0.00 55 1015.1
20260905002747 67 266 4.0 24.0 0.00 0.00 0.00 55 1015.2
20260905001750 67 302 7.0 20.0 0.00 0.00 0.00 55 1015.0
20260905000748 67 279 9.0 15.0 0.00 0.00 0.00 55 1015.1
20260904235750 67 226 5.0 12.0 0.00 0.00 0.00 56 1014.9
20260904234752 67 343 9.0 22.0 0.00 0.00 0.00 56 1014.9
20260904233754 67 359 8.0 24.0 0.00 0.00 0.00 56 1015.0
20260904232755 67 346 7.0 20.0 0.00 0.00 0.00 56 1014.9
20260904231757 66 307 4.0 10.0 0.00 0.00 0.00 56 1014.8
20260904230759 66 31 6.0 18.0 0.00 0.00 0.00 56 1014.6
20260904225801 66 137 0.0 3.0 0.00 0.00 0.00 55 1014.2
20260904224803 66 54 2.0 9.0 0.00 0.00 0.00 56 1014.4
20260904223805 66 68 4.0 13.0 0.00 0.00 0.00 56 1013.6
20260904222806 66 72 8.0 28.0 0.00 0.00 0.00 56 1013.3
20260904221808 67 66 6.0 18.0 0.00 0.00 0.00 55 1012.8
20260904220810 67 61 5.0 12.0 0.00 0.00 0.00 54 1012.4